OPS 4682 DEB, 51505

Orbit data source: Space-Track

OPS 4682 DEB, 51505 is space debris in LEO originally from a launch on Sat, 03 Apr 1965 UTC launched from the Air Force Western Test Range (AFWTR). Debris objects in space refer to the collection of defunct objects orbiting the Earth. Examples of debris include non-operational satellites, rocket bodies, and fragments generated from explosions, collisions, or faulty payload assembly.

Loading next visibility...
Identifier
51505, 1965-027GR
Orbit
LEO
Country
Flag of USUS
Related business
Manufacturer
Unknown
Mission
Spacecraft
Bus & Motor
Unknown
Mass
Unknown
Launch date (UTC)
1965-04-03 (61 years ago)
Launch vehicle
Unknown
Launch site
Air Force Western Test Range (AFWTR)
Object type
Payload
Rocket body
Debris
Shape & HBR
Unknown
Radar Cross Section
Medium (>0.1 m² and <1 m²)

Expand to show TLE details & history
Last TLE update: 4 days ago

TLE from 4 days ago
0 OPS 4682 DEB
1 51505U 65027GR  26204.90202234  .00000309  00000-0  10173-2 0  9998
2 51505  90.2432  12.8637 0028971 225.1133 134.7637 12.98942592350818
Epoch: 2026-07-23T21:38Z
TLE epoch observation values (Epoch: 2026-07-23T21:38:54.730Z)
Latitude
0.00007°
Longitude
106.49931°
Altitude
1,284.745 km
Speed
7.206 km/s
True Right ascension
00h 51m 27s
True Declination
0° 00' 00"
Sunlit
Object was in daylight at epoch
Visualization orbit readout
Latitude
Unknown
Longitude
Unknown
Altitude
Unknown
Speed
Unknown
Apparent Right ascension
Unknown
Apparent Declination
Unknown
Sunlit
N/A
Visualization observer readout
Local Sidereal Time
12:13:26
Azimuth
Unknown
Elevation
Unknown
Doppler factor
Unknown
Orbital elements
Apogee altitude
1,285.499 km
Perigee altitude
1,241.223 km
Semi-major axis
7,641.498 km
Eccentricity
0.0029
Inclination
90.2432°
RAAN
12.8637°
Arg. of periapsis
225.1133°
True anomaly
134.99881°
Mean anomaly
134.7637°
Eccentric anomaly
134.88132°
Mean motion
3.24919 °/min
Orbital period
110.8 mins
BSTAR
0.0010173
Loading maneuver chart data...
Computing Atmospheric mass density...
Loading historical data...
Loading historical data...
Loading historical data...
Loading historical data...
Loading historical data...
Loading historical data...
Loading historical data...

Documentation

Showing up to 5 results
|